Weather History for Luxor, Egypt

Change the Weather History Date:

Wednesday, April 23, 2014

  Actual Average Record
Temperature  
Mean Temperature 88 °F -  
Max Temperature 103 °F 97 °F 111 °F (2008)
Min Temperature 73 °F 68 °F 57 °F (2003)
Cooling Degree Days 23    
Growing Degree Days 38 (Base 50)    
Moisture  
Dew Point 50 °F    
Average Humidity 26    
Maximum Humidity 44    
Minimum Humidity 11    
Precipitation  
Precipitation 0.00 in 0.00 in - ()
Sea Level Pressure  
Sea Level Pressure 29.82 in    
Wind  
Wind Speed 3 mph ()    
Max Wind Speed 5 mph    
Max Gust Speed -    
Visibility 5.3 miles    
Events      
Averages and records for this station are not official NWS values.
T = Trace of Precipitation, MM = Missing Value Source: Averaged Metar Reports

Daily Weather History Graph

Daily Weather History Graph

Search for Another Location

Airport:

Trip Planner

Search our weather history database for the weather conditions in past years. The results will help you decide how hot, cold, wet, or windy it might be!

Date:

Astronomy

Apr. 23, 2014 Rise Set
Actual Time 5:19 AM EET 6:16 PM EET
Civil Twilight 4:55 AM EET 6:39 PM EET
Nautical Twilight 4:27 AM EET 7:08 PM EET
Astronomical Twilight 3:58 AM EET 7:36 PM EET
Moon 12:58 AM EET (4/23) 12:37 PM EET (4/23)
Length of Visible Light 13h 44m
Length of Day
12h 56m
Last Quarter, 38% of the Moon is Illuminated
Apr 23
Last Quarter
Apr 29
New
May 7
First Quarter
May 14
Full
May 21
Last Quarter

Hourly Weather History & Observations

Time (EET) Temp. Heat Index Dew Point Humidity Pressure Visibility Wind Dir Wind Speed Gust Speed Precip Events Conditions
12:00 AM 82.4 °F - 42.8 °F 25% 29.86 in - NNE 2.3 mph - N/A   Clear
1:00 AM 80.6 °F - 44.6 °F 28% 29.83 in - North 4.6 mph - N/A   Clear
2:00 AM 79 °F - 44 °F 19% 29.83 in 6 mi North 4.6 mph - -  
2:00 AM 78.8 °F - 44.6 °F 30% 29.83 in - North 4.6 mph - N/A   Clear
3:00 AM 78.8 °F - 44.6 °F 30% 29.83 in - North 4.6 mph - N/A   Clear
4:00 AM 77.0 °F - 44.6 °F 32% 29.83 in - North 4.6 mph - N/A   Clear
5:00 AM 74 °F - 49 °F 31% 29.86 in 6 mi NE 3.5 mph - -  
5:00 AM 73.4 °F - 50.0 °F 44% 29.86 in - NE 3.5 mph - N/A   Clear
6:00 AM 73.4 °F - 50.0 °F 44% 29.86 in - NE 3.5 mph - N/A   Clear
7:00 AM 77.0 °F - 50.0 °F 39% 29.89 in 3.7 mi NE 2.3 mph - N/A   Unknown
8:00 AM 82 °F - 52 °F 25% 29.89 in 4 mi North 2.3 mph - -   Haze
8:00 AM 82.4 °F - 51.8 °F 35% 29.89 in 3.7 mi North 2.3 mph - N/A   Unknown
9:00 AM 87.8 °F - 51.8 °F 29% 29.89 in - North 3.5 mph - N/A   Clear
10:00 AM 91.4 °F - 51.8 °F 26% 29.89 in - North 3.5 mph - N/A   Clear
11:00 AM 94 °F - 54 °F 17% 29.85 in 6 mi North 3.5 mph - -   Partly Cloudy
12:00 PM 98.6 °F - 51.8 °F 21% 29.83 in - North 3.5 mph - N/A   Clear
1:00 PM 100.4 °F - 51.8 °F 20% 29.80 in - North 3.5 mph - N/A   Clear
2:00 PM 102 °F - 52 °F 11% 29.78 in 6 mi NNW 3.5 mph - -   Partly Cloudy
2:00 PM 102.2 °F - 51.8 °F 18% 29.80 in - NNW 3.5 mph - N/A   Clear
3:00 PM 100.4 °F 98.4 °F 53.6 °F 21% 29.77 in - NNW 3.5 mph - N/A   Clear
4:00 PM 100.4 °F - 51.8 °F 20% 29.77 in - West 3.5 mph - N/A   Clear
5:00 PM 99 °F - 53 °F 13% 29.75 in 6 mi North 2.3 mph - -   Partly Cloudy
5:00 PM 98.6 °F - 51.8 °F 21% 29.77 in - North 2.3 mph - N/A   Clear
6:00 PM 96.8 °F - 51.8 °F 22% 29.77 in - NNE 3.5 mph - N/A   Clear
7:00 PM 93.2 °F - 51.8 °F 24% 29.77 in - NE 2.3 mph - N/A   Clear
8:00 PM 88 °F - 51 °F 19% 29.78 in 6 mi Calm Calm - -  
8:00 PM 87.8 °F - 51.8 °F 29% 29.80 in - Calm Calm - N/A   Clear
9:00 PM 84.2 °F - 50.0 °F 30% 29.80 in - Calm Calm - N/A   Clear
10:00 PM 86.0 °F - 44.6 °F 23% 29.80 in - South 1.2 mph - N/A   Clear
11:00 PM 84 °F - 47 °F 18% 29.78 in 6 mi Calm Calm - -  
11:00 PM 84.2 °F - 48.2 °F 29% 29.77 in - Calm Calm - N/A   Clear